This is the latest recevied weather packets stored in our database for station/object NC4M. If no packets are shown the sender has not sent any weather packets the latest 10 day(s).
| Time | Temp. | Humidity | Pressure | Rain* | Wind** | Luminosity | Snow |
|---|---|---|---|---|---|---|---|
| 1787964616 | 21.67° C | 77% | 1020 hPa | 0 mm | - | 1 W/m² | - |
| 1787964310 | 21.67° C | 72% | 1020.1 hPa | 0 mm | - | 3 W/m² | - |
| 1787964009 | 22.22° C | 72% | 1020 hPa | 0 mm | - | 4 W/m² | - |
| 1787963704 | 22.22° C | 75% | 1020 hPa | 0 mm | - | 6 W/m² | - |
| 1787963404 | 22.78° C | 71% | 1020.3 hPa | 0 mm | - | 9 W/m² | - |
| 1787963100 | 22.78° C | 70% | 1019.8 hPa | 0 mm | - | 11 W/m² | - |
| 1787962799 | 22.78° C | 68% | 1020 hPa | 0 mm | - | 14 W/m² | - |
| 1787962498 | 23.33° C | 69% | 1019.9 hPa | 0 mm | - | 16 W/m² | - |
| 1787962196 | 23.89° C | 66% | 1020 hPa | 0 mm | - | 17 W/m² | - |
| 1787961891 | 23.89° C | 68% | 1019.8 hPa | 0 mm | - | 19 W/m² | - |
| 1787961590 | 24.44° C | 62% | 1020 hPa | 0 mm | - | 22 W/m² | - |
| 1787961285 | 24.44° C | 60% | 1019.8 hPa | 0 mm | - | 23 W/m² | - |
| 1787960985 | 25° C | 67% | 1019.8 hPa | 0 mm | - | 24 W/m² | - |
| 1787960681 | 25° C | 60% | 1020 hPa | 0 mm | - | 25 W/m² | - |
| 1787960379 | 25° C | 58% | 1020 hPa | 0 mm | - | 26 W/m² | - |
| 1787960079 | 25.56° C | 57% | 1020.1 hPa | 0 mm | - | 27 W/m² | - |
| 1787959774 | 25.56° C | 56% | 1020 hPa | 0 mm | - | 28 W/m² | - |
| 1787959470 | 25.56° C | 55% | 1020 hPa | 0 mm | - | 25 W/m² | - |
| 1787959164 | 26.11° C | 54% | 1020.2 hPa | 0 mm | - | 30 W/m² | - |
| 1787958859 | 26.11° C | 53% | 1020 hPa | 0 mm | - | 31 W/m² | - |
| 1787958554 | 26.11° C | 54% | 1020.2 hPa | 0 mm | - | 33 W/m² | - |
| 1787958251 | 26.11° C | 54% | 1020.1 hPa | 0 mm | - | 36 W/m² | - |
| 1787957950 | 26.67° C | 52% | 1019.9 hPa | 0 mm | - | 36 W/m² | - |
| 1787957649 | 26.67° C | 50% | 1020.1 hPa | 0 mm | - | 35 W/m² | - |
| 1787957345 | 27.22° C | 51% | 1020 hPa | 0 mm | - | 48 W/m² | - |
* Rain latest hour (hover to see other rain measurements)
** Current wind speed in m/s (hover to see current wind gust speed)